Home   Weather   Bristol   Past weeks

Flag for USA Past Weather in Bristol, Tennessee, USA — Yesterday and Last 2 Weeks

38 °F


Feels Like: 38 °F
Forecast: 36 / 65 °F
Wind: No wind

Location: Abingdon-Southwest Abingdon

Current Time: Oct 23, 2016 at 3:59:18 AM

Latest Report: Oct 23, 2016 at 3:15 AM

Visibility: 10 mi

Pressure: 30.15 "Hg (28.31 "Hg at 510m altitude)

Humidity: 89%

Dew Point: 35 °F

Location of BristolLocation

Past Weather in Bristol — Graph


Bristol Temperature Yesterday

Maximum temperature yesterday: 53 °F (at 3:55 PM)
Minimum temperature yesterday: 41 °F (at 11:55 PM)
Average temperature yesterday: 48 °F

High & Low Weather Summary for the Past Weeks

High83 °F (Oct 20, 2:15 PM)100% (Oct 17, 8:15 AM)30.42 "Hg (Oct 17, 8:15 AM)
Low38 °F (Oct 23, 2:35 AM)28% (Oct 10, 4:15 PM)29.77 "Hg (Oct 21, 5:55 AM)
Average61 °F71%30.17 "Hg
* Reported Oct 8 2:15 AM — Oct 23 2:35 AM, Bristol, Weather by CustomWeather, © 2016

Note: Actual official high and low records may vary slightly from our data, if they occured in-between our weather recording intervals... More about our weather records


Bristol Weather History for the Previous 24 Hours

Scroll right to see more
Time TempWeatherWind HumidityBarometerVisibility
2:35 AM
Sun, Oct 23
38 °FClear.No wind87%30.15 "Hg10 mi
2:15 AM38 °FClear.No wind86%30.14 "Hg10 mi
1:55 AM39 °FClear.No wind86%30.14 "Hg10 mi
1:35 AM39 °FClear.No wind86%30.14 "Hg10 mi
1:15 AM39 °FClear.No wind86%30.13 "Hg10 mi
12:55 AM40 °FClear.No wind85%30.12 "Hg10 mi
12:35 AM40 °FClear.No wind81%30.12 "Hg10 mi
12:15 AM41 °FClear.No wind79%30.12 "Hg10 mi
11:55 PM
Sat, Oct 22
41 °FClear.No wind79%30.12 "Hg10 mi
11:35 PM42 °FClear.No wind77%30.12 "Hg10 mi
11:15 PM43 °FClear.3 mph70%30.12 "Hg10 mi
10:55 PM42 °FClear.5 mph77%30.12 "Hg10 mi
10:35 PM44 °FClear.5 mph68%30.12 "Hg10 mi
10:15 PM46 °FClear.5 mph61%30.11 "Hg10 mi
9:55 PM46 °FClear.5 mph60%30.11 "Hg10 mi
9:35 PM47 °FClear.6 mph58%30.11 "Hg10 mi
9:15 PM47 °FClear.7 mph57%30.10 "Hg10 mi
8:55 PM47 °FClear.7 mph58%30.10 "Hg10 mi
8:35 PM47 °FClear.7 mph57%30.10 "Hg10 mi
8:15 PM48 °FClear.6 mph56%30.09 "Hg10 mi
7:55 PM48 °FClear.5 mph55%30.09 "Hg10 mi
7:35 PM49 °FClear.7 mph52%30.08 "Hg10 mi
7:15 PM50 °FClear.8 mph50%30.08 "Hg10 mi
6:55 PM51 °FClear.7 mph49%30.07 "Hg10 mi
6:35 PM51 °FSunny.9 mph48%30.06 "Hg10 mi
6:15 PM52 °FSunny.7 mph47%30.06 "Hg10 mi
5:55 PM52 °FSunny.10 mph46%30.05 "Hg10 mi
5:35 PM53 °FSunny.13 mph45%30.05 "Hg10 mi
5:15 PM52 °FSunny.10 mph47%30.05 "Hg10 mi
4:55 PM53 °FScattered clouds.14 mph44%30.04 "Hg10 mi
4:35 PM53 °FScattered clouds.14 mph45%30.03 "Hg10 mi
4:15 PM52 °FPartly sunny.9 mph46%30.04 "Hg10 mi
3:55 PM53 °FPartly sunny.14 mph44%30.04 "Hg10 mi
3:35 PM52 °FPartly sunny.13 mph45%30.03 "Hg10 mi
3:15 PM52 °FPartly sunny.10 mph46%30.03 "Hg10 mi
2:55 PM52 °FOvercast.12 mph47%30.04 "Hg10 mi
2:35 PM50 °FMostly cloudy.14 mph49%30.04 "Hg10 mi
2:15 PM49 °FMostly cloudy.9 mph52%30.04 "Hg10 mi
1:55 PM50 °FMostly cloudy.8 mph50%30.05 "Hg10 mi
1:35 PM49 °FOvercast.8 mph51%30.05 "Hg10 mi
1:15 PM49 °FOvercast.9 mph50%30.06 "Hg10 mi
12:55 PM48 °FOvercast.9 mph53%30.06 "Hg10 mi
12:35 PM48 °FOvercast.8 mph51%30.06 "Hg10 mi
12:15 PM48 °FOvercast.6 mph52%30.06 "Hg10 mi
11:55 AM48 °FOvercast.13 mph51%30.07 "Hg10 mi
11:35 AM48 °FOvercast.8 mph50%30.06 "Hg10 mi
11:15 AM47 °FOvercast.12 mph51%30.06 "Hg10 mi
10:55 AM47 °FOvercast.3 mph52%30.06 "Hg10 mi
10:15 AM46 °FOvercast.9 mph51%30.06 "Hg10 mi
9:55 AM46 °FOvercast.6 mph53%30.06 "Hg10 mi
9:35 AM46 °FOvercast.12 mph53%30.05 "Hg10 mi
9:15 AM46 °FOvercast.14 mph54%30.04 "Hg10 mi
8:55 AM46 °FOvercast.6 mph54%30.03 "Hg10 mi
8:35 AM45 °FOvercast.9 mph58%30.02 "Hg10 mi
8:15 AM45 °FOvercast.5 mph59%30.01 "Hg10 mi
7:55 AM45 °FOvercast.7 mph59%30.00 "Hg10 mi
7:35 AM45 °FOvercast.6 mph60%29.99 "Hg10 mi
7:15 AM46 °FOvercast.7 mph60%29.99 "Hg10 mi
6:55 AM46 °FMostly cloudy.7 mph62%29.98 "Hg10 mi
6:35 AM45 °FPartly cloudy.9 mph61%29.97 "Hg10 mi
6:15 AM45 °FPartly cloudy.6 mph60%29.97 "Hg10 mi
5:55 AM45 °FPassing clouds.3 mph63%29.96 "Hg10 mi
5:35 AM46 °FOvercast.9 mph62%29.96 "Hg10 mi
5:15 AM46 °FMostly cloudy.5 mph61%29.95 "Hg10 mi
4:55 AM46 °FOvercast.13 mph61%29.95 "Hg10 mi
4:35 AM46 °FOvercast.9 mph62%29.95 "Hg10 mi
4:15 AM46 °FMostly cloudy.14 mph61%29.95 "Hg10 mi
3:55 AM47 °FOvercast.7 mph59%29.95 "Hg10 mi
3:35 AM47 °FOvercast.12 mph62%29.95 "Hg10 mi
3:15 AM47 °FMostly cloudy.8 mph70%29.95 "Hg10 mi
Weather by CustomWeather, © 2016

See weather overviewHow to use our weather pages